Location: Chimay
(50.0486°N, 4.3171°E)
Time: 06:30:55
(UTC+00:00)

Cosmos 1862 - Pass Details

Date: 08 August 2020
Orbit: 537 x 557 km, 82.5° (Epoch: 23 September)

Event Time Altitude Azimuth Distance (km) Brightness Sun altitude
Rises 19:56:32 0° 182° (S) 2,724 6.5 -6.8°
Reaches altitude 10° 19:58:42 10° 180° (S) 1,837 5.7 -7.1°
Maximum altitude 20:02:43 69° 97° (E) 603 3.3 -7.6°
Drops below altitude 10° 20:06:47 10° 15° (NNE) 1,857 6.3 -8.2°
Sets 20:08:59 0° 13° (NNE) 2,758 7.2 -8.4°
